Regional Weather Roundup
Issued by NWS Wakefield, VA

Home | Current Version | Previous Version | Text Only | Print | Product List | Glossary Off
Versions: 1 2 3 4 5 6 7 8 9 10 11 12 13 14 15 16 17 18 19 20 21 22 23 24 25 26 27

000
ASUS41 KAKQ 171915
RWRAKQ

REGIONAL WEATHER ROUNDUP
NATIONAL WEATHER SERVICE WAKEFIELD VA
200 PM EST FRI NOV 17 2017

Note: "fair" indicates few or no clouds below 12,000 feet with no
significant weather and/or obstructions to visibility. * = Denotes
station may not report precipitation (e.g., rain,snow,etc.),
thunder or fog.

VAZ042-051-052>054-056-172000-
NORTHERN VIRGINIA

CITY           SKY/WX    TMP DP  RH WIND       PRES   REMARKS
WASH NATIONAL  MOSUNNY   53  28  38 W10       30.17F
DULLES         MOSUNNY   51  27  39 NW9       30.17F
FORT BELVOIR   SUNNY     54  26  33 NW10      30.16F
QUANTICO       SUNNY     55  26  32 NW6       30.18F
FREDERICKSBRG* SUNNY     53  29  39 NW5       30.16F
STAFFORD*      SUNNY     53  26  35 NW5       30.20F
WARRENTON      NOT AVBL
CULPEPER*      MOSUNNY   54  22  28 W6        30.18S
MANASSAS*      SUNNY     53  27  36 N8        30.17F
LEESBURG*      SUNNY     52  30  43 NW9       30.18S
WINCHESTER     CLOUDY    48  28  46 W7        30.16F
FRONT ROYAL*   CLOUDY    50  28  43 SE5       30.16S
LURAY*         CLOUDY    52  28  40 CALM      30.17S
$$

VAZ048-049-060>072-079>083-172000-
CENTRAL AND SOUTH CENTRAL VIRGINIA

CITY           SKY/WX    TMP DP  RH WIND       PRES   REMARKS
RICHMOND       PTSUNNY   53  28  38 NW6       30.17F
CHESTERFIELD*  NOT AVBL
PETERSBURG*    CLOUDY   N/A N/A N/A W6        30.18F
HANOVER        CLOUDY    53  29  39 W6        30.19F
TAPPAHANNOCK*    N/A    N/A N/A N/A MISG        N/A
QUINTON*       FAIR      52  28  40 NW7       30.16F
CHARLOTTSVILLE SUNNY     56  23  27 CALM      30.16F
GORDONSVILLE*  CLOUDY    54  26  33 CALM      30.16F
ORANGE*        CLOUDY    52  28  40 CALM      30.17F
LOUISA*          N/A     53  24  33 W3        30.21F
BUMPASS*       FAIR      53  23  31 W7        30.17F
FARMVILLE*     MOSUNNY   57  25  29 CALM      30.16F
CREWE*         FAIR      54  28  36 CALM      30.17F
FORT PICKETT*  NOT AVBL
CHASE CITY*    FAIR      55  30  38 CALM      30.17F
CLARKSVILLE*   FAIR      54  28  37 N5        30.17F
SOUTH HILL*    CLOUDY    53  30  42 CALM      30.23F
LAWRENCEVILLE* FAIR      53  27  36 CALM      30.17F
EMPORIA*       SUNNY     52  30  43 NW6       30.19F
$$

VAZ088>098-172000-
SOUTHEAST VIRGINIA

CITY           SKY/WX    TMP DP  RH WIND       PRES   REMARKS
NORFOLK        SUNNY     54  31  41 W8        30.16F
VIRGINIA BEACH MOSUNNY   53  33  46 N12       30.15F
NORFOLK NAVAL  MOSUNNY   52  33  48 W13       30.17F
WEST POINT*    CLOUDY    52  28  39 W6        30.18F
SALUDA*        FAIR      51  32  48 NW5       30.15F
NEWPORT NEWS   SUNNY     54  31  41 VRB6      30.15F
LANGLEY AFB    SUNNY     54  31  40 N8        30.15F
FORT EUSTIS    SUNNY     53  31  44 NW8       30.13F
WILLIAMSBURG*  SUNNY     57  34  41 NW3       30.16F
HR EXEC AP*    NOT AVBL
FRANKLIN*      SUNNY     53  30  40 CALM      30.17F
US460-WAKEFLD  SUNNY     54  30  40 W9        30.17F
$$

VAZ020-022-025-037-045-172000-
WEST CENTRAL AND SOUTHWEST VIRGINIA

CITY           SKY/WX    TMP DP  RH WIND       PRES   REMARKS
STAUNTON*      SUNNY     48  28  45 CALM      30.18F
WAYNESBORO*    PTCLDY    51  25  35 SW3       30.16F
HOT SPRINGS VA SUNNY     49  13  24 CALM      30.13F
LYNCHBURG      MOSUNNY   54  23  30 VRB3      30.16F
DANVILLE       MOSUNNY   56  29  35 N3        30.17F
SOUTH BOSTON*  FAIR      56  22  27 CALM      30.17F
MARTINSVILLE   CLOUDY    57  26  29 CALM      30.18F
ROANOKE        MOSUNNY   53  29  39 CALM      30.17F
BLACKSBURG     MOSUNNY   52  26  36 CALM      30.17F
DUBLIN*        MOSUNNY   53  27  36 CALM      30.16F
MARION*        SUNNY     58   6  12 NE7       30.14F
HILLSVILLE*    SUNNY     56  22  27 SW3       30.12F
RICHLANDS*     FAIR      58 -20   4 CALM      30.12F
WISE*          SUNNY     59  27  29 S3        30.12S
ABINGDON*      SUNNY     61  21  21 CALM      30.11F
$$

MDZ021>025-VAZ099-100-172000-
SOUTHERN MARYLAND AND THE DELMARVA PENINSULA

CITY           SKY/WX    TMP DP  RH WIND       PRES   REMARKS
PATUXENT RIVER MOSUNNY   53  29  39 NW12      30.14F
BAY BRIDGE APT SUNNY     50  30  46 N9        30.15F
LEONARDTOWN    SUNNY     52  28  40 W3        30.16F
DOVER          MOSUNNY   51  27  38 W12       30.12F
GEORGETOWN     SUNNY     52  29  41 W8        30.13F
EASTON         MOSUNNY   52  28  40 NW5       30.18F
CAMBRIDGE      SUNNY     50  28  43 NW9       30.15F
SALISBURY      SUNNY     52  30  43 NW16      30.13F
OCEAN CITY     SUNNY     52  30  43 N14       30.13S
WALLOPS ISLAND MOSUNNY   53  33  46 NW10      30.13F
ACCOMACK*      SUNNY     51  35  53 NW14      30.14F
$$

NCZ012>017-030>032-172000-
NORTH CENTRAL AND EASTERN NORTH CAROLINA

CITY           SKY/WX    TMP DP  RH WIND       PRES   REMARKS
ROANOKE RAPIDS FAIR      54  32  43 NW5       30.18F
RALEIGH        CLOUDY    55  30  38 NE5       30.18F
ELIZABETH CITY SUNNY     56  36  47 NW9       30.16F
AHOSKIE*       MOSUNNY   52  31  45 NW5       30.18F
EDENTON*       SUNNY     56  35  44 NW7       30.17F
CURRITUCK*     SUNNY     53  33  46 N6        30.16F
KILL DEVIL HLS SUNNY     52  34  51 CALM      30.14F
MANTEO         SUNNY     51  38  60 N9        30.16F
CAPE HATTERAS  SUNNY     54  42  64 N9G18     30.15F
TARBORO*       NOT AVBL
GOLDSBORO      SUNNY     57  31  38 N7        30.15F
WASHINGTON     SUNNY     56  32  40 NW5       30.17F
GREENVILLE     SUNNY     55  32  41 N3        30.18F
NEW BERN       SUNNY     55  37  50 N6        30.17F
WILMINGTON     SUNNY     60  34  37 N5        30.16F
$$

VAZ048-172000-
ELSEWHERE

CITY           SKY/WX    TMP DP  RH WIND       PRES   REMARKS
HARRISBURG PA  SUNNY     48  25  40 N12       30.14F
BALTIMORE      MOSUNNY   52  26  36 NW9G20    30.14F
ANNAPOLIS      SUNNY     52  31  44 NW9       30.14F
ANDREWS AFB    SUNNY     51  25  36 NW13      30.14F
PHILADELPHIA   MOSUNNY   50  22  33 NW15      30.11F
HENDERSON NC   CLOUDY    53  28  37 CALM      30.17F
GREENSBORO     CLOUDY    55  28  35 CALM      30.15F
ROCKY MOUNT    CLOUDY    56  31  38 N3        30.17F
$$

VAZ100-172000-
MARINE

STATION/POSITION TIME  TEMP    WIND        PRES    WAVE   SWELL
                       AIR SEA DIR/SP/G            HT/PER HT/PER
                 (UTC) (F)     (DEG/KT/KT) (MB)    (FT/S) (FT/S)
BRANDYWINE LGT   1830   47     340/ 14/ 19 1020.3F
CAPE MAY NJ      1830   47 49  320/ 16/ 21 1019.6F
LEWES DE         1830   48 52  330/ 14/ 17 1020.1F
15NM E FENWICK I 1850   49 59  310/ 21/ 27 1019.9F   5/ 5   2/12
OCEAN-CITY-INLET 1830   50 54  340/ 12/ 17 1020.5F
WACHAPREAGUE VA  1830   50 52  330/  6/ 13 1020.8F
THOMAS POINT MD  1900   50 53  330/  8/ 12   N/A
GOOSES REEF MD   1900   51 55   10/  8/ 12 1029.3    1/ 2
COVE POINT MD    1830   50     360/  7/ 11 1021.6F
SOLOMONS ISLAND  1830   51 55  330/  8/ 10 1020.6F
BISHOPS HEAD MD  1830   45 49  320/  9/ 14 1021.2F
PINEY POINT MD   1830          300/ 13/ 16   N/A
POTOMAC MD       1900   50 55  290/ 14/ 16 1020.3    2/ 3
CAMBRIDGE MD     1830   52 51              1021.7F
LEWISETTA VA     1830   49 51  330/ 11/ 14 1021.2F
RAPPAHANNOCK LGT 1830          320/ 12/ 15 1021.8F
STINGRAY PT      1900   51 55  320/ 14/ 16 1021.0    1/ 2
YORK RVR RNG VA  1830   51      10/  7/  9 1021.7F
YORKTOWN VA      1830   50 56  320/ 13/ 14 1021.3F
JAMESTOWN VA     1900      55  300/  8/ 12   N/A     1
DOMINION TERM VA 1830   49     310/ 13/ 17 1021.6F
KIPTOPEKE VA     1830      55  310/ 10/ 13   N/A
CAPE HENRY VA    1830   49     320/ 13/ 15   N/A
WILLOUBY STN VA  1830   50     280/ 13/ 14 1021.2F
S CRANEY ISL VA  1830   50     280/  7/ 10 1021.5F
CAPE HENRY BUOY  1900      61                N/A     4/ 4   2/13
1ST LANDING BUOY 1900   49 56  350/ 10/ 14 1021.4    2/ 3
CAPE CHARLES BUO 1851      58                N/A     3/13   2/13
64NM E OF VA BCH 1850   51 61  330/ 16/ 19 1020.8F   5/ 7   3/11
DUCK PIER NC     1830   50 57  350/ 12/ 15 1020.6F
44100 DUCK FRF   1845      62                N/A     5/ 6   2/11
44056 DUCK FRF   1900      59                N/A     4/ 7   2/13
OREGON INLET NC  1830   51 58  350/ 10/ 14 1021.1S
HATTERAS NC      1830   51 58   20/ 13/ 16 1020.7F
DIAMOND SHLS NC  1900   53 64  360/ 17/ 21 1020.7
CAPE LOOKOUT NC  1900   53      10/  9/ 12 1021.2F
$$




USA.gov is the U.S. government's official web portal to all federal, state and local government web resources and services.